Flag for United Kingdom Weather past 2 weeks in Kingston upon Hull, England, United Kingdom

Now
61 °F

Drizzle. Overcast.


Feels Like: 61 °F
Forecast: 52 / 63 °F
Wind: 15 mph from South

Location: Humberside

Current Time: Jul 7, 2015 at 1:21:24 AM

Latest Report: Jul 7, 2015 at 12:50 AM


Visibility: N/A

Pressure: 29.86 "Hg

Humidity: 83%

Dew point: 55 °F

Location of Kingston upon HullLocation

Historic Weather in Kingston upon Hull — Graph

°F

Kingston upon Hull temperature yesterday

Maximum temperature yesterday: 66 °F (at 10:50 AM)
Minimum temperature yesterday: 50 °F (at 4:20 AM)
Average temperature yesterday: 60 °F

Past Weeks' High & Low Weather Summary

 TemperatureHumidityPressure
High82 °F (Jul 1, 5:20 PM)100% (Jun 24, 3:50 AM)30.30 "Hg (Jun 24, 3:50 AM)
Low48 °F (Jun 23, 10:20 PM)41% (Jun 27, 3:20 PM)29.74 "Hg (Jun 22, 10:20 AM)
Average63 °F75%30.03 "Hg
* Reported Jun 22 12:20 AM — Jul 7 12:20 AM, Kingston upon Hull, Weather by CustomWeather, © 2015

Note: Actual official high and low records may vary slightly from our data, if they occured in-between our weather recording intervals... More about our weather records

Advertising

Kingston upon Hull weather history for previous 24 hours

 ConditionsComfort  
Time TempWeatherWind HumidityBarometerVisibility
12:20 AM
Tue, Jul 7
61 °FDrizzle. Overcast.14 mph88%29.86 "HgN/A
11:50 PM
Mon, Jul 6
61 °FDrizzle. Overcast.14 mph88%29.89 "HgN/A
11:20 PM61 °FLight rain. Overcast.13 mph88%29.89 "HgN/A
10:50 PM61 °FRain. Overcast.12 mph88%29.89 "Hg3 mi
10:20 PM63 °FLight rain. Cloudy.14 mph77%29.89 "Hg6 mi
9:50 PM64 °FMild.14 mph68%29.92 "HgN/A
9:20 PM64 °FBroken clouds.13 mph68%29.92 "HgN/A
8:50 PM64 °FBroken clouds.13 mph73%29.92 "HgN/A
8:20 PM64 °FBroken clouds.13 mph68%29.92 "HgN/A
7:50 PM64 °FScattered clouds.10 mph73%29.95 "HgN/A
7:20 PM64 °FScattered clouds.6 mph78%29.95 "HgN/A
6:50 PM63 °FBroken clouds.6 mph83%29.95 "HgN/A
6:20 PM63 °FBroken clouds.8 mph83%29.95 "HgN/A
5:50 PM61 °FScattered clouds.3 mph88%29.98 "Hg6 mi
5:20 PM61 °FLight rain. Broken clouds.5 mph88%30.01 "Hg6 mi
4:50 PM63 °FSprinkles. Broken clouds.10 mph73%30.01 "HgN/A
4:20 PM64 °FSprinkles. Scattered clouds.12 mph73%30.01 "HgN/A
3:50 PM64 °FBroken clouds.13 mph68%30.01 "HgN/A
3:20 PM64 °FLight rain. Broken clouds.13 mph73%30.04 "HgN/A
2:50 PM64 °FScattered clouds.14 mph73%30.04 "HgN/A
2:20 PM64 °FScattered clouds.10 mph78%30.04 "HgN/A
1:50 PM63 °FSprinkles. More clouds than sun.6 mph77%30.04 "HgN/A
1:20 PM63 °FSprinkles. Broken clouds.9 mph73%30.04 "HgN/A
12:50 PM64 °FSprinkles. Broken clouds.14 mph64%30.04 "HgN/A
12:20 PM64 °FScattered clouds.17 mph60%30.04 "HgN/A
11:50 AM66 °FScattered clouds.18 mph56%30.04 "HgN/A
11:20 AM66 °FScattered clouds.15 mph52%30.04 "HgN/A
10:50 AM66 °FScattered clouds.16 mph60%30.04 "HgN/A
10:20 AM64 °FScattered clouds.15 mph68%30.04 "HgN/A
9:50 AM64 °FPassing clouds.16 mph68%30.04 "HgN/A
9:20 AM63 °FPassing clouds.14 mph73%30.04 "HgN/A
8:50 AM61 °FPassing clouds.16 mph77%30.04 "HgN/A
8:20 AM59 °FPassing clouds.17 mph82%30.04 "HgN/A
7:50 AM57 °FPassing clouds.15 mph88%30.04 "HgN/A
7:20 AM55 °FSunny.14 mph88%30.04 "Hg10 mi
6:50 AM54 °FSunny.12 mph94%30.04 "Hg10 mi
6:20 AM54 °FSunny.12 mph94%30.04 "Hg10 mi
5:50 AM52 °FSunny.10 mph94%30.04 "Hg10 mi
5:20 AM50 °FCool.12 mph94%30.04 "HgN/A
4:50 AM50 °FCool.9 mph94%30.04 "HgN/A
4:20 AM50 °FCool.12 mph94%30.01 "HgN/A
3:50 AM54 °FCool.10 mph82%30.01 "HgN/A
3:20 AM52 °FCool.9 mph88%30.01 "HgN/A
2:50 AM52 °FCool.10 mph88%30.01 "HgN/A
2:20 AM54 °FCool.8 mph82%30.01 "HgN/A
1:50 AM54 °FCool.8 mph82%30.01 "HgN/A
1:20 AM52 °FCool.8 mph94%30.01 "HgN/A
Weather by CustomWeather, © 2015

See weather overviewHow to use our weather pages